Current Weather Conditions: station 63055

sailwx.info

Wind from 040 at 5 knots

Wave height 3.0 meters (9 feet), 7 second period

Air temperature 4.2° C
Visibility: greater than 27.0 NM
Dewpoint -0.1° C

Last reported at 2020-Feb-28 13:00 UTC.
Time now 2020-Feb-28 14:23 UTC

Location: N 60°36' E 001°36'.
View on Google Maps.

See reports from other nearby stations

  
Tides and Currents Weather Stations Pressure Air Temp Water Temp Dewpoint Dewpoint Depression Visibility Wind Speed Wind Dir Waves Ship Positions
date/time (UTC)wind fromknots sea level pressurealtimeterstation pressurevisibilityair tempwater tempwave heightnotes
2020-Feb-28 13:00 040 5 27.0 4.2 3.0
2020-Feb-28 12:00 020 7 27.0 3.7 3.1
2020-Feb-28 11:00 010 6 27.0 3.6 3.0
2020-Feb-28 10:00 330 7 27.0 3.4 2.8
2020-Feb-28 09:00 320 8 27.0 3.8 2.6
2020-Feb-28 08:00 320 13 27.0 3.9 2.5
2020-Feb-28 07:00 310 13 27.0 4.2 2.6
2020-Feb-28 06:00 300 15 27.0 4.3 2.5
2020-Feb-28 05:00 280 20 27.0 4.2 2.4
2020-Feb-28 04:00 290 15 27.0 3.7 2.5
2020-Feb-28 03:00 290 13 27.0 3.8 2.6
2020-Feb-28 02:00 290 20 27.0 3.8 2.5
2020-Feb-28 01:00 280 15 10.8 4.2 2.6
2020-Feb-28 00:00 280 14 27.0 4.5 2.8
2020-Feb-27 23:00 280 18 27.0 4.7 2.6
2020-Feb-27 22:00 290 13 27.0 4.2 2.6
2020-Feb-27 21:00 280 6 27.0 3.5 2.5
2020-Feb-27 20:00 290 9 27.0 3.5 2.4
2020-Feb-27 19:00 270 12 27.0 3.7 2.4
2020-Feb-27 18:00 270 12 27.0 4.2 2.3
2020-Feb-27 17:00 270 13 27.0 4.0 2.3
2020-Feb-27 16:00 260 12 27.0 3.6 2.3
2020-Feb-27 15:00 250 13 10.8 2.4 2.2
2020-Feb-27 14:00 190 15 27.0 3.4 2.3
2020-Feb-27 13:00 170 17 27.0 2.7 2.4
2020-Feb-27 12:00 190 13 10.8 2.8 2.6
2020-Feb-27 11:00 230 13 27.0 3.8 2.5
2020-Feb-27 10:00 170 9 27.0 3.5 2.5
2020-Feb-27 09:00 240 13 27.0 2.9 2.6
2020-Feb-27 08:00 250 11 27.0 3.4 2.7
2020-Feb-27 07:00 220 19 27.0 3.5 2.7
2020-Feb-27 06:00 210 12 27.0 3.9 2.5
2020-Feb-27 05:00 210 12 27.0 3.6 2.4
2020-Feb-27 04:00 250 7 27.0 3.5 2.3
2020-Feb-27 03:00 260 12 27.0 3.8 2.3
2020-Feb-27 02:00 250 11 27.0 3.6 2.2
2020-Feb-27 01:00 270 13 27.0 3.6 2.2
2020-Feb-27 00:00 240 8 27.0 2.8 2.1
2020-Feb-26 23:00 260 13 10.8 3.4 2.0
2020-Feb-26 22:00 210 8 27.0 3.7 2.1
2020-Feb-26 21:00 250 6 27.0 3.8 2.0
2020-Feb-26 20:00 270 9 27.0 3.5 1.9
2020-Feb-26 19:00 290 7 27.0 4.4 1.8
2020-Feb-26 18:00 260 9 27.0 5.1 1.6
2020-Feb-26 17:00 280 6 27.0 5.0 1.7
2020-Feb-26 16:00 270 11 27.0 5.0 1.8
2020-Feb-26 15:00 230 12 27.0 5.1 1.5
2020-Feb-26 14:00 170 11 27.0 4.4 1.4